AirNav   Get $300 off a Bose A20
 
 1010 users online  

9GA1 Briar Patch Airport
Clyo, Georgia, USA

GOING TO CLYO?


FAA INFORMATION EFFECTIVE 25 APRIL 2019

Location

FAA Identifier: 9GA1
Lat/Long: 32-26-56.0000N / 081-20-13.0000W
32-26.933333N / 081-20.216667W
32.4488889 / -81.3369444
(estimated)
Elevation: 100 ft. / 30 m (estimated)
Variation: 05W (1995)
From city: 4 miles SW of CLYO, GA
Time zone: UTC -4 (UTC -5 during Standard Time)
Zip code: 31303

Airport Operations

Airport use: Private use. Permission required prior to landing
Activation date: 02/1998
Control tower: no
ARTCC: JACKSONVILLE CENTER
FSS: MACON FLIGHT SERVICE STATION
Attendance: UNATNDD
Wind indicator: yes
Segmented circle: no

Airport Communications

WX AWOS-3 at JYL (18 nm NW): 118.875 (912-857-9000)

Nearby radio navigation aids

VOR radial/distance  VOR name  Freq  Var
SAVr345/19.5SAVANNAH VORTAC115.9506W
SVNr341/28.0HUNTER VOR/DME111.6002W
ALDr185/(33.9)ALLENDALE VOR116.7001W

 
NDB name  Hdg/Dist  Freq  Var  ID
SYLVANIA137/17.724504WJYL .--- -.-- .-..
CLAXTON065/31.339504WCWV -.-. .-- ...-
MC INTOSH017/38.126304WMOQ -- --- --.-

Airport Services

Runway Information

Runway 16/34

Dimensions: 2600 x 100 ft. / 792 x 30 m
Surface: turf, in good condition
RUNWAY 16  RUNWAY 34
Traffic pattern: leftleft

Airport Ownership and Management from official FAA records

Ownership: Privately-owned
Owner: TIM O'NEILL
547 GREEN MORGAN SCHOOL ROAD
CLYO, GA 31303
Phone (912) 754-7547
Manager: TIM O'NEILL
547 GREEN MORGAN SCHOOL ROAD
CLYO, GA 31303
Phone (912) 754-7547

Airport Operational Statistics

Aircraft based on the field: 7
Single engine airplanes: 3
Ultralights: 4
    

Additional Remarks

FOR CD CTC SAVANNAH APCH AT 916-964-3205. IF UNA, CTC FSS.

Instrument Procedures

There are no published instrument procedures at 9GA1.

Some nearby airports with instrument procedures:

KJYL - Plantation Airpark (18 nm NW)
KTBR - Statesboro-Bulloch County Airport (20 nm W)
KSAV - Savannah/Hilton Head International Airport (20 nm S)
KSVN - Hunter Army Airfield (28 nm S)
KCWV - Claxton-Evans County Airport (31 nm SW)
 
Loc | Ops | Rwys | IFR | FBO | Links
Com | Nav | Svcs | Stats | Notes
Area around 9GA1 (Briar Patch Airport)
 
Road maps at: MapQuest Bing Google
 
Aerial photo
WARNING: Photo may not be current or correct
Aerial photo of 9GA1 (Briar Patch Airport)
Photo taken 20-Aug-2005

Do you have a better or more recent aerial photo of Briar Patch Airport that you would like to share? If so, please send us your photo.

 
Sectional chart

 
Airport distance calculator
Flying to Briar Patch Airport? Find the distance to fly.

From to 9GA1

Sunrise and sunset
Times for 20-May-2019
 Local
(UTC-4)
 Zulu
(UTC)
Morning civil twilight05:5809:58
Sunrise06:2510:25
Sunset20:1900:19
Evening civil twilight20:4600:46

Current date and time
Zulu (UTC)  21-May-2019 00:04:18
Local (UTC-4)  20-May-2019 20:04:18
 
METAR
KJYL 
18nm NW 
202355Z AUTO 25003KT 10SM BKN075 BKN085 OVC110 31/16 A2994 RMK AO2 T03090161 10348 20309
KTBR 
20nm W 
202355Z AUTO 00000KT 10SM SCT120 30/15 A2993 RMK AO2 T02950154 10332 20295
KSAV 
21nm S 
202353Z 18011KT 10SM FEW100 27/21 A2995 RMK AO2 SLP141 T02720206 10339 20272 53002
KSVN 
28nm S 
202356Z AUTO 17009KT 10SM CLR 27/21 A2993 RMK AO2 SLP138 60000 T02670205 10336 20267 55000 $
KCWV 
31nm SW 
202355Z AUTO 00000KT 7SM SCT120 29/20 A2993 RMK AO2 T02930198 10341 20293
KNBC 
31nm E 
202356Z 17004KT 10SM CLR 27/22 A2995 RMK AO2 SLP142 T02720222 10328 20272 53000
KAQX 
33nm N 
202355Z AUTO 00000KT 10SM BKN075 31/16 A2991 RMK AO2
KHXD 
35nm E 
202350Z 17008KT 10SM CLR 26/22 A2996
TAF
KSAV 
21nm S 
201725Z 2018/2118 17009KT P6SM SCT040 FM210600 24004KT P6SM SKC
NOTAMs
Click for the latest NOTAMs
NOTAMs are issued by the DoD/FAA and will open in a separate window not controlled by AirNav.

 

 
 

Would you like to see your business listed on this page?

 If your business provides an interesting product or service to pilots, flight crews, aircraft, or users of the Briar Patch Airport, you should consider listing it here.  To start the listing process, click on the button below
 
Add a business
 

Other Pages about Briar Patch Airport

Update a link
 
Copyright © AirNav, LLC. All rights reserved. Privacy Policy  Contact